CYGFM07

Last updated on Tue Sep 22 2026 00:02:53 GMT+0000 (Coordinated Universal Time)

1 41890U 16078G 26264.48881561 .00025767 00000+0 24990-3 0 9998 2 41890 34.9440 306.0194 0003613 51.0213 309.0835 15.65318031544077
UTC large
Height (km)
Speed (km/s)
/
Latitude / Longitude
Inclination (degrees)
Orbital Period (minutes)
Azimuth
Elevation
Range (km)
Doppler Factor

Next 0 passes for location: London (51.5072 / 0.1276)

No passes found over London.
CYGFM07